Location: ???????
(55.4362°N, 38.1183°E)
Time: 03:52:25
(UTC+00:00)

DIWATA 2B (PO-101) - Visible Passes

Search period start: 29 November 2021 00:00
Search period end: 09 December 2021 00:00
Orbit: 586 x 598 km, 97.9° (Epoch: 28 November)

Date Brightness Start Highest point End Pass type
(mag) Time Alt. Az. Time Alt. Az. Time Alt. Az.
03 Dec ? 13:39:18 10° N 13:42:22 20° WNW 13:45:25 10° WSW visible
04 Dec ? 13:48:09 10° NNW 13:50:56 18° NW 13:53:44 10° W visible
05 Dec ? 13:57:02 10° NNW 13:59:31 15° NW 14:01:58 10° W visible
06 Dec ? 14:06:00 10° NNW 14:08:04 13° NW 14:10:07 10° W visible
07 Dec ? 14:15:05 10° NNW 14:16:37 12° NW 14:18:08 10° WNW visible
08 Dec ? 14:24:31 10° NW 14:25:09 10° NW 14:25:46 10° NW visible
